Year,Month,Day,Hour,Minute,Value (Times are PST for temperature in C)
2015,07,06,00,00,18.40
2015,07,06,00,01,18.40
2015,07,06,00,02,18.30
2015,07,06,00,03,18.30
2015,07,06,00,04,18.30
2015,07,06,00,05,18.20
2015,07,06,00,06,18.20
2015,07,06,00,07,18.20
2015,07,06,00,08,18.10
2015,07,06,00,09,18.10
2015,07,06,00,10,18.10
2015,07,06,00,11,18.00
2015,07,06,00,12,18.00
2015,07,06,00,13,17.90
2015,07,06,00,14,17.90
2015,07,06,00,15,17.90
2015,07,06,00,16,17.90
2015,07,06,00,17,17.90
2015,07,06,00,18,17.90
2015,07,06,00,19,17.80
2015,07,06,00,20,17.80
2015,07,06,00,21,17.80
2015,07,06,00,22,17.80
2015,07,06,00,23,17.80
2015,07,06,00,24,17.80
2015,07,06,00,25,17.80
2015,07,06,00,26,17.70
2015,07,06,00,27,17.70
2015,07,06,00,28,17.70
2015,07,06,00,29,17.70
2015,07,06,00,30,17.70
2015,07,06,00,31,17.70
2015,07,06,00,32,17.60
2015,07,06,00,33,17.60
2015,07,06,00,34,17.60
2015,07,06,00,35,17.60
2015,07,06,00,36,17.60
2015,07,06,00,37,17.60
2015,07,06,00,38,17.60
2015,07,06,00,39,17.50
2015,07,06,00,40,17.50
2015,07,06,00,41,17.50
2015,07,06,00,42,17.50
2015,07,06,00,43,17.50
2015,07,06,00,44,17.40
2015,07,06,00,45,17.40
2015,07,06,00,46,17.40
2015,07,06,00,47,17.40
2015,07,06,00,48,17.40
2015,07,06,00,49,17.40
2015,07,06,00,50,17.30
2015,07,06,00,51,17.30
2015,07,06,00,52,17.30
2015,07,06,00,53,17.20
2015,07,06,00,54,17.20
2015,07,06,00,55,17.20
2015,07,06,00,56,17.20
2015,07,06,00,57,17.20
2015,07,06,00,58,17.20
2015,07,06,00,59,17.10
2015,07,06,01,00,17.10
2015,07,06,01,01,17.10
2015,07,06,01,02,17.10
2015,07,06,01,03,17.10
2015,07,06,01,04,17.10
2015,07,06,01,05,17.10
2015,07,06,01,06,17.10
2015,07,06,01,07,17.10
2015,07,06,01,08,17.10
2015,07,06,01,09,17.10
2015,07,06,01,10,17.10
2015,07,06,01,11,17.10
2015,07,06,01,12,17.10
2015,07,06,01,13,17.10
2015,07,06,01,14,17.10
2015,07,06,01,15,17.10
2015,07,06,01,16,17.10
2015,07,06,01,17,17.10
2015,07,06,01,18,17.10
2015,07,06,01,19,17.10
2015,07,06,01,20,17.00
2015,07,06,01,21,17.00
2015,07,06,01,22,17.00
2015,07,06,01,23,17.00
2015,07,06,01,24,17.00
2015,07,06,01,25,17.00
2015,07,06,01,26,17.00
2015,07,06,01,27,16.90
2015,07,06,01,28,16.90
2015,07,06,01,29,16.90
2015,07,06,01,30,16.90
2015,07,06,01,31,16.90
2015,07,06,01,32,16.90
2015,07,06,01,33,16.90
2015,07,06,01,34,16.90
2015,07,06,01,35,16.90
2015,07,06,01,36,16.90
2015,07,06,01,37,16.80
2015,07,06,01,38,16.80
2015,07,06,01,39,16.80
2015,07,06,01,40,16.80
2015,07,06,01,41,16.80
2015,07,06,01,42,16.80
2015,07,06,01,43,16.70
2015,07,06,01,44,16.70
2015,07,06,01,45,16.70
2015,07,06,01,46,16.70
2015,07,06,01,47,16.70
2015,07,06,01,48,16.70
2015,07,06,01,49,16.60
2015,07,06,01,50,16.60
2015,07,06,01,51,16.70
2015,07,06,01,52,16.70
2015,07,06,01,53,16.70
2015,07,06,01,54,16.70
2015,07,06,01,55,16.70
2015,07,06,01,56,16.70
2015,07,06,01,57,16.70
2015,07,06,01,58,16.70
2015,07,06,01,59,16.70
2015,07,06,02,00,16.60
2015,07,06,02,01,16.60
2015,07,06,02,02,16.60
2015,07,06,02,03,16.60
2015,07,06,02,04,16.60
2015,07,06,02,05,16.50
2015,07,06,02,06,16.50
2015,07,06,02,07,16.50
2015,07,06,02,08,16.50
2015,07,06,02,09,16.40
2015,07,06,02,10,16.40
2015,07,06,02,11,16.40
2015,07,06,02,12,16.40
2015,07,06,02,13,16.40
2015,07,06,02,14,16.40
2015,07,06,02,15,16.30
2015,07,06,02,16,16.30
2015,07,06,02,17,16.30
2015,07,06,02,18,16.30
2015,07,06,02,19,16.30
2015,07,06,02,20,16.20
2015,07,06,02,21,16.20
2015,07,06,02,22,16.20
2015,07,06,02,23,16.20
2015,07,06,02,24,16.10
2015,07,06,02,25,16.10
2015,07,06,02,26,16.10
2015,07,06,02,27,16.10
2015,07,06,02,28,16.10
2015,07,06,02,29,16.10
2015,07,06,02,30,16.00
2015,07,06,02,31,16.00
2015,07,06,02,32,16.00
2015,07,06,02,33,16.10
2015,07,06,02,34,16.10
2015,07,06,02,35,16.10
2015,07,06,02,36,16.10
2015,07,06,02,37,16.10
2015,07,06,02,38,16.10
2015,07,06,02,39,16.10
2015,07,06,02,40,16.10
2015,07,06,02,41,16.10
2015,07,06,02,42,16.10
2015,07,06,02,43,16.10
2015,07,06,02,44,16.10
2015,07,06,02,45,16.10
2015,07,06,02,46,16.10
2015,07,06,02,47,16.10
2015,07,06,02,48,16.10
2015,07,06,02,49,16.10
2015,07,06,02,50,16.10
2015,07,06,02,51,16.10
2015,07,06,02,52,16.10
2015,07,06,02,53,16.10
2015,07,06,02,54,16.00
2015,07,06,02,55,16.00
2015,07,06,02,56,16.00
2015,07,06,02,57,16.00
2015,07,06,02,58,15.90
2015,07,06,02,59,15.90
2015,07,06,03,00,15.90
2015,07,06,03,01,15.90
2015,07,06,03,02,15.90
2015,07,06,03,03,15.90
2015,07,06,03,04,15.90
2015,07,06,03,05,15.90
2015,07,06,03,06,15.90
2015,07,06,03,07,15.90
2015,07,06,03,08,15.90
2015,07,06,03,09,15.90
2015,07,06,03,10,15.90
2015,07,06,03,11,15.90
2015,07,06,03,12,15.90
2015,07,06,03,13,15.90
2015,07,06,03,14,15.90
2015,07,06,03,15,15.90
2015,07,06,03,16,15.90
2015,07,06,03,17,15.80
2015,07,06,03,18,15.80
2015,07,06,03,19,15.80
2015,07,06,03,20,15.80
2015,07,06,03,21,15.80
2015,07,06,03,22,15.80
2015,07,06,03,23,15.80
2015,07,06,03,24,15.80
2015,07,06,03,25,15.80
2015,07,06,03,26,15.80
2015,07,06,03,27,15.80
2015,07,06,03,28,15.80
2015,07,06,03,29,15.80
2015,07,06,03,30,15.80
2015,07,06,03,31,15.80
2015,07,06,03,32,15.80
2015,07,06,03,33,15.70
2015,07,06,03,34,15.70
2015,07,06,03,35,15.70
2015,07,06,03,36,15.70
2015,07,06,03,37,15.70
2015,07,06,03,38,15.60
2015,07,06,03,39,15.60
2015,07,06,03,40,15.60
2015,07,06,03,41,15.60
2015,07,06,03,42,15.50
2015,07,06,03,43,15.50
2015,07,06,03,44,15.50
2015,07,06,03,49,15.40
2015,07,06,03,50,15.30
2015,07,06,03,51,15.30
2015,07,06,03,52,15.30
2015,07,06,03,53,15.30
2015,07,06,03,54,15.30
2015,07,06,03,55,15.30
2015,07,06,03,56,15.30
2015,07,06,03,57,15.30
2015,07,06,03,58,15.30
2015,07,06,03,59,15.30
2015,07,06,04,00,15.30
2015,07,06,04,01,15.30
2015,07,06,04,02,15.30
2015,07,06,04,03,15.30
2015,07,06,04,04,15.30
2015,07,06,04,05,15.30
2015,07,06,04,06,15.30
2015,07,06,04,07,15.30
2015,07,06,04,08,15.30
2015,07,06,04,09,15.30
2015,07,06,04,10,15.30
2015,07,06,04,11,15.30
2015,07,06,04,12,15.30
2015,07,06,04,13,15.30
2015,07,06,04,14,15.30
2015,07,06,04,15,15.30
2015,07,06,04,16,15.30
2015,07,06,04,17,15.30
2015,07,06,04,18,15.20
2015,07,06,04,19,15.20
2015,07,06,04,20,15.20
2015,07,06,04,21,15.20
2015,07,06,04,22,15.20
2015,07,06,04,23,15.20
2015,07,06,04,24,15.20
2015,07,06,04,25,15.10
2015,07,06,04,26,15.10
2015,07,06,04,27,15.10
2015,07,06,04,28,15.10
2015,07,06,04,29,15.10
2015,07,06,04,30,15.10
2015,07,06,04,31,15.00
2015,07,06,04,32,15.00
2015,07,06,04,33,15.00
2015,07,06,04,34,15.00
2015,07,06,04,35,15.00
2015,07,06,04,36,15.00
2015,07,06,04,37,15.00
2015,07,06,04,38,15.00
2015,07,06,04,39,15.00
2015,07,06,04,40,15.00
2015,07,06,04,41,15.00
2015,07,06,04,42,15.00
2015,07,06,04,43,15.00
2015,07,06,04,44,15.00
2015,07,06,04,45,15.00
2015,07,06,04,46,15.00
2015,07,06,04,47,15.00
2015,07,06,04,48,15.00
2015,07,06,04,49,15.00
2015,07,06,04,50,15.00
2015,07,06,04,51,15.00
2015,07,06,04,52,15.00
2015,07,06,04,53,15.00
2015,07,06,04,54,15.00
2015,07,06,04,55,15.00
2015,07,06,04,56,15.00
2015,07,06,04,57,15.00
2015,07,06,04,58,15.00
2015,07,06,04,59,15.00
2015,07,06,05,00,15.00
2015,07,06,05,01,15.00
2015,07,06,05,02,15.00
2015,07,06,05,03,15.00
2015,07,06,05,04,15.00
2015,07,06,05,05,14.90
2015,07,06,05,06,14.90
2015,07,06,05,07,14.90
2015,07,06,05,08,14.90
2015,07,06,05,09,14.80
2015,07,06,05,10,14.80
2015,07,06,05,11,14.80
2015,07,06,05,12,14.80
2015,07,06,05,13,14.80
2015,07,06,05,14,14.80
2015,07,06,05,15,14.70
2015,07,06,05,16,14.70
2015,07,06,05,17,14.70
2015,07,06,05,18,14.70
2015,07,06,05,19,14.70
2015,07,06,05,20,14.70
2015,07,06,05,21,14.70
2015,07,06,05,22,14.70
2015,07,06,05,23,14.60
2015,07,06,05,24,14.60
2015,07,06,05,25,14.60
2015,07,06,05,26,14.60
2015,07,06,05,27,14.60
2015,07,06,05,28,14.60
2015,07,06,05,29,14.60
2015,07,06,05,30,14.60
2015,07,06,05,31,14.60
2015,07,06,05,32,14.60
2015,07,06,05,33,14.60
2015,07,06,05,34,14.60
2015,07,06,05,35,14.60
2015,07,06,05,36,14.60
2015,07,06,05,37,14.60
2015,07,06,05,38,14.60
2015,07,06,05,39,14.50
2015,07,06,05,40,14.50
2015,07,06,05,41,14.50
2015,07,06,05,42,14.50
2015,07,06,05,43,14.40
2015,07,06,05,44,14.40
2015,07,06,05,45,14.40
2015,07,06,05,46,14.40
2015,07,06,05,47,14.40
2015,07,06,05,48,14.30
2015,07,06,05,49,14.30
2015,07,06,05,50,14.30
2015,07,06,05,51,14.30
2015,07,06,05,52,14.30
2015,07,06,05,53,14.30
2015,07,06,05,54,14.30
2015,07,06,05,55,14.20
2015,07,06,05,56,14.20
2015,07,06,05,57,14.20
2015,07,06,05,58,14.20
2015,07,06,05,59,14.20
2015,07,06,06,00,14.20
2015,07,06,06,01,14.20
2015,07,06,06,02,14.20
2015,07,06,06,03,14.20
2015,07,06,06,04,14.20
2015,07,06,06,05,14.20
2015,07,06,06,06,14.20
2015,07,06,06,07,14.20
2015,07,06,06,08,14.20
2015,07,06,06,09,14.20
2015,07,06,06,10,14.20
2015,07,06,06,11,14.20
2015,07,06,06,12,14.20
2015,07,06,06,13,14.20
2015,07,06,06,14,14.20
2015,07,06,06,15,14.20
2015,07,06,06,16,14.20
2015,07,06,06,17,14.20
2015,07,06,06,18,14.20
2015,07,06,06,19,14.20
2015,07,06,06,20,14.10
2015,07,06,06,21,14.10
2015,07,06,06,22,14.10
2015,07,06,06,23,14.00
2015,07,06,06,24,13.90
2015,07,06,06,25,13.90
2015,07,06,06,26,13.80
2015,07,06,06,27,13.80
2015,07,06,06,28,13.80
2015,07,06,06,29,13.80
2015,07,06,06,30,13.80
2015,07,06,06,31,13.70
2015,07,06,06,32,13.70
2015,07,06,06,33,13.70
2015,07,06,06,34,13.70
2015,07,06,06,35,13.70
2015,07,06,06,36,13.70
2015,07,06,06,37,13.70
2015,07,06,06,38,13.70
2015,07,06,06,39,13.80
2015,07,06,06,40,13.80
2015,07,06,06,41,13.80
2015,07,06,06,42,13.80
2015,07,06,06,43,13.80
2015,07,06,06,44,13.90
2015,07,06,06,45,13.90
2015,07,06,06,46,13.90
2015,07,06,06,47,13.90
2015,07,06,06,48,14.00
2015,07,06,06,49,14.00
2015,07,06,06,50,14.00
2015,07,06,06,51,14.00
2015,07,06,06,52,14.10
2015,07,06,06,53,14.10
2015,07,06,06,54,14.10
2015,07,06,06,55,14.20
2015,07,06,06,56,14.20
2015,07,06,06,57,14.20
2015,07,06,06,58,14.20
2015,07,06,06,59,14.20
2015,07,06,07,00,14.30
2015,07,06,07,01,14.30
2015,07,06,07,02,14.30
2015,07,06,07,03,14.30
2015,07,06,07,04,14.30
2015,07,06,07,05,14.40
2015,07,06,07,06,14.40
2015,07,06,07,07,14.40
2015,07,06,07,08,14.50
2015,07,06,07,09,14.50
2015,07,06,07,10,14.50
2015,07,06,07,11,14.50
2015,07,06,07,12,14.50
2015,07,06,07,13,14.60
2015,07,06,07,14,14.60
2015,07,06,07,15,14.60
2015,07,06,07,16,14.60
2015,07,06,07,17,14.70
2015,07,06,07,18,14.70
2015,07,06,07,19,14.70
2015,07,06,07,20,14.80
2015,07,06,07,21,14.80
2015,07,06,07,22,14.80
2015,07,06,07,23,14.90
2015,07,06,07,24,15.00
2015,07,06,07,25,15.00
2015,07,06,07,26,15.00
2015,07,06,07,27,15.00
2015,07,06,07,28,15.00
2015,07,06,07,29,15.00
2015,07,06,07,30,15.00
2015,07,06,07,31,15.00
2015,07,06,07,32,15.10
2015,07,06,07,33,15.20
2015,07,06,07,34,15.30
2015,07,06,07,35,15.30
2015,07,06,07,36,15.30
2015,07,06,07,37,15.40
2015,07,06,07,38,15.40
2015,07,06,07,39,15.40
2015,07,06,07,40,15.50
2015,07,06,07,41,15.50
2015,07,06,07,42,15.60
2015,07,06,07,43,15.70
2015,07,06,07,44,15.80
2015,07,06,07,45,15.80
2015,07,06,07,46,15.80
2015,07,06,07,47,15.90
2015,07,06,07,48,15.90
2015,07,06,07,49,15.90
2015,07,06,07,50,16.00
2015,07,06,07,51,16.00
2015,07,06,07,52,16.10
2015,07,06,07,53,16.10
2015,07,06,07,54,16.10
2015,07,06,07,55,16.20
2015,07,06,07,56,16.20
2015,07,06,07,57,16.30
2015,07,06,07,58,16.40
2015,07,06,07,59,16.40
2015,07,06,08,00,16.50
2015,07,06,08,01,16.50
2015,07,06,08,02,16.60
2015,07,06,08,03,16.60
2015,07,06,08,04,16.70
2015,07,06,08,05,16.80
2015,07,06,08,06,16.80
2015,07,06,08,07,16.90
2015,07,06,08,08,16.90
2015,07,06,08,09,17.00
2015,07,06,08,10,17.10
2015,07,06,08,11,17.10
2015,07,06,08,12,17.20
2015,07,06,08,13,17.20
2015,07,06,08,14,17.30
2015,07,06,08,15,17.40
2015,07,06,08,16,17.40
2015,07,06,08,17,17.50
2015,07,06,08,18,17.60
2015,07,06,08,19,17.60
2015,07,06,08,20,17.60
2015,07,06,08,21,17.70
2015,07,06,08,22,17.70
2015,07,06,08,23,17.70
2015,07,06,08,24,17.70
2015,07,06,08,25,17.70
2015,07,06,08,26,17.70
2015,07,06,08,27,17.70
2015,07,06,08,28,17.70
2015,07,06,08,29,17.70
2015,07,06,08,30,17.70
2015,07,06,08,31,17.70
2015,07,06,08,32,17.70
2015,07,06,08,33,17.70
2015,07,06,08,34,17.80
2015,07,06,08,35,17.80
2015,07,06,08,36,17.80
2015,07,06,08,37,17.90
2015,07,06,08,38,18.00
2015,07,06,08,39,18.00
2015,07,06,08,40,18.10
2015,07,06,08,41,18.10
2015,07,06,08,42,18.10
2015,07,06,08,43,18.10
2015,07,06,08,44,18.10
2015,07,06,08,45,18.20
2015,07,06,08,46,18.20
2015,07,06,08,47,18.10
2015,07,06,08,48,18.10
2015,07,06,08,49,18.10
2015,07,06,08,50,18.10
2015,07,06,08,51,18.10
2015,07,06,08,52,18.10
2015,07,06,08,53,18.10
2015,07,06,08,54,18.10
2015,07,06,08,55,18.20
2015,07,06,08,56,18.20
2015,07,06,08,57,18.20
2015,07,06,08,58,18.20
2015,07,06,08,59,18.30
2015,07,06,09,00,18.30
2015,07,06,09,01,18.30
2015,07,06,09,02,18.40
2015,07,06,09,03,18.40
2015,07,06,09,04,18.50
2015,07,06,09,05,18.50
2015,07,06,09,06,18.60
2015,07,06,09,07,18.60
2015,07,06,09,08,18.60
2015,07,06,09,09,18.60
2015,07,06,09,10,18.70
2015,07,06,09,11,18.70
2015,07,06,09,12,18.80
2015,07,06,09,13,18.80
2015,07,06,09,14,18.80
2015,07,06,09,15,18.90
2015,07,06,09,16,18.90
2015,07,06,09,17,19.00
2015,07,06,09,18,19.00
2015,07,06,09,19,19.10
2015,07,06,09,20,19.10
2015,07,06,09,21,19.20
2015,07,06,09,22,19.30
2015,07,06,09,23,19.40
2015,07,06,09,24,19.40
2015,07,06,09,25,19.50
2015,07,06,09,26,19.60
2015,07,06,09,27,19.60
2015,07,06,09,28,19.70
2015,07,06,09,29,19.70
2015,07,06,09,30,19.80
2015,07,06,09,31,19.80
2015,07,06,09,32,19.90
2015,07,06,09,33,20.00
2015,07,06,09,34,20.00
2015,07,06,09,35,20.10
2015,07,06,09,36,20.20
2015,07,06,09,37,20.30
2015,07,06,09,38,20.30
2015,07,06,09,39,20.40
2015,07,06,09,40,20.40
2015,07,06,09,41,20.50
2015,07,06,09,42,20.50
2015,07,06,09,43,20.60
2015,07,06,09,44,20.60
2015,07,06,09,45,20.60
2015,07,06,09,46,20.60
2015,07,06,09,47,20.60
2015,07,06,09,48,20.60
2015,07,06,09,49,20.60
2015,07,06,09,50,20.60
2015,07,06,09,51,20.60
2015,07,06,09,52,20.70
2015,07,06,09,53,20.70
2015,07,06,09,54,20.70
2015,07,06,09,55,20.70
2015,07,06,09,56,20.80
2015,07,06,09,57,20.90
2015,07,06,09,58,20.90
2015,07,06,09,59,21.00
2015,07,06,10,00,21.10
2015,07,06,10,01,21.10
2015,07,06,10,02,21.20
2015,07,06,10,03,21.20
2015,07,06,10,04,21.20
2015,07,06,10,05,21.20
2015,07,06,10,06,21.30
2015,07,06,10,07,21.30
2015,07,06,10,08,21.30
2015,07,06,10,09,21.30
2015,07,06,10,10,21.30
2015,07,06,10,11,21.30
2015,07,06,10,12,21.20
2015,07,06,10,13,21.20
2015,07,06,10,14,21.10
2015,07,06,10,15,21.10
2015,07,06,10,16,21.10
2015,07,06,10,17,21.10
2015,07,06,10,18,21.10
2015,07,06,10,19,21.10
2015,07,06,10,20,21.00
2015,07,06,10,21,21.00
2015,07,06,10,22,21.00
2015,07,06,10,23,20.90
2015,07,06,10,24,20.90
2015,07,06,10,25,20.80
2015,07,06,10,26,20.80
2015,07,06,10,27,20.80
2015,07,06,10,28,20.80
2015,07,06,10,29,20.80
2015,07,06,10,30,20.80
2015,07,06,10,31,20.80
2015,07,06,10,32,20.80
2015,07,06,10,33,20.80
2015,07,06,10,34,20.70
2015,07,06,10,35,20.60
2015,07,06,10,36,20.60
2015,07,06,10,37,20.50
2015,07,06,10,38,20.50
2015,07,06,10,39,20.50
2015,07,06,10,40,20.50
2015,07,06,10,41,20.50
2015,07,06,10,42,20.40
2015,07,06,10,43,20.40
2015,07,06,10,44,20.50
2015,07,06,10,45,20.50
2015,07,06,10,46,20.50
2015,07,06,10,47,20.50
2015,07,06,10,48,20.60
2015,07,06,10,49,20.60
2015,07,06,10,50,20.60
2015,07,06,10,51,20.60
2015,07,06,10,52,20.60
2015,07,06,10,53,20.60
2015,07,06,10,54,20.70
2015,07,06,10,55,20.80
2015,07,06,10,56,20.80
2015,07,06,10,57,20.90
2015,07,06,10,58,20.90
2015,07,06,10,59,20.90
2015,07,06,11,00,20.90
2015,07,06,11,01,20.90
2015,07,06,11,02,20.90
2015,07,06,11,03,20.90
2015,07,06,11,04,20.90
2015,07,06,11,05,20.90
2015,07,06,11,06,21.00
2015,07,06,11,07,21.00
2015,07,06,11,08,21.10
2015,07,06,11,09,21.10
2015,07,06,11,10,21.00
2015,07,06,11,11,20.80
2015,07,06,11,12,20.70
2015,07,06,11,13,20.60
2015,07,06,11,14,20.60
2015,07,06,11,15,20.50
2015,07,06,11,16,20.50
2015,07,06,11,17,20.50
2015,07,06,11,18,20.40
2015,07,06,11,19,20.40
2015,07,06,11,20,20.40
2015,07,06,11,21,20.40
2015,07,06,11,22,20.40
2015,07,06,11,23,20.50
2015,07,06,11,24,20.60
2015,07,06,11,25,20.60
2015,07,06,11,26,20.70
2015,07,06,11,27,20.70
2015,07,06,11,28,20.70
2015,07,06,11,29,20.80
2015,07,06,11,30,20.80
2015,07,06,11,31,20.90
2015,07,06,11,32,21.00
2015,07,06,11,33,21.10
2015,07,06,11,34,21.10
2015,07,06,11,35,21.20
2015,07,06,11,36,21.20
2015,07,06,11,37,21.30
2015,07,06,11,38,21.30
2015,07,06,11,39,21.40
2015,07,06,11,40,21.50
2015,07,06,11,41,21.50
2015,07,06,11,42,21.60
2015,07,06,11,43,21.60
2015,07,06,11,44,21.70
2015,07,06,11,45,21.70
2015,07,06,11,46,21.70
2015,07,06,11,47,21.70
2015,07,06,11,48,21.70
2015,07,06,11,49,21.70
2015,07,06,11,50,21.70
2015,07,06,11,51,21.70
2015,07,06,11,52,21.50
2015,07,06,11,53,21.40
2015,07,06,11,54,21.20
2015,07,06,11,55,21.20
2015,07,06,11,56,21.20
2015,07,06,11,57,21.20
2015,07,06,11,58,21.30
2015,07,06,11,59,21.40
2015,07,06,12,00,21.50
2015,07,06,12,01,21.50
2015,07,06,12,02,21.60
2015,07,06,12,03,21.60
2015,07,06,12,04,21.60
2015,07,06,12,05,21.60
2015,07,06,12,06,21.60
2015,07,06,12,07,21.60
2015,07,06,12,08,21.70
2015,07,06,12,09,21.70
2015,07,06,12,10,21.70
2015,07,06,12,11,21.70
2015,07,06,12,12,21.70
2015,07,06,12,13,21.60
2015,07,06,12,14,21.60
2015,07,06,12,15,21.60
2015,07,06,12,16,21.60
2015,07,06,12,17,21.60
2015,07,06,12,18,21.50
2015,07,06,12,19,21.60
2015,07,06,12,20,21.50
2015,07,06,12,21,21.40
2015,07,06,12,22,21.30
2015,07,06,12,23,21.20
2015,07,06,12,24,21.10
2015,07,06,12,25,21.00
2015,07,06,12,26,20.90
2015,07,06,12,27,20.90
2015,07,06,12,28,21.00
2015,07,06,12,29,21.00
2015,07,06,12,30,21.00
2015,07,06,12,31,21.10
2015,07,06,12,32,21.10
2015,07,06,12,33,21.20
2015,07,06,12,34,21.30
2015,07,06,12,35,21.40
2015,07,06,12,36,21.40
2015,07,06,12,37,21.50
2015,07,06,12,38,21.60
2015,07,06,12,39,21.60
2015,07,06,12,40,21.70
2015,07,06,12,41,21.80
2015,07,06,12,42,21.80
2015,07,06,12,43,21.80
2015,07,06,12,44,21.80
2015,07,06,12,45,21.80
2015,07,06,12,46,21.70
2015,07,06,12,47,21.70
2015,07,06,12,48,21.70
2015,07,06,12,49,21.80
2015,07,06,12,50,21.80
2015,07,06,12,51,21.80
2015,07,06,12,52,21.80
2015,07,06,12,53,21.80
2015,07,06,12,54,21.80
2015,07,06,12,55,21.90
2015,07,06,12,56,21.90
2015,07,06,12,57,21.90
2015,07,06,12,58,21.80
2015,07,06,12,59,21.70
2015,07,06,13,00,21.80
2015,07,06,13,01,21.80
2015,07,06,13,02,21.80
2015,07,06,13,03,21.80
2015,07,06,13,04,21.80
2015,07,06,13,05,21.80
2015,07,06,13,06,21.80
2015,07,06,13,07,21.80
2015,07,06,13,08,21.80
2015,07,06,13,09,21.70
2015,07,06,13,10,21.70
2015,07,06,13,11,21.70
2015,07,06,13,12,21.70
2015,07,06,13,13,21.70
2015,07,06,13,14,21.80
2015,07,06,13,15,21.90
2015,07,06,13,16,21.90
2015,07,06,13,17,21.90
2015,07,06,13,18,22.00
2015,07,06,13,19,22.00
2015,07,06,13,20,22.10
2015,07,06,13,21,22.10
2015,07,06,13,22,22.00
2015,07,06,13,23,22.00
2015,07,06,13,24,21.90
2015,07,06,13,25,22.00
2015,07,06,13,26,22.00
2015,07,06,13,27,22.10
2015,07,06,13,28,22.10
2015,07,06,13,29,22.10
2015,07,06,13,30,22.10
2015,07,06,13,31,22.10
2015,07,06,13,32,22.20
2015,07,06,13,33,22.20
2015,07,06,13,34,22.20
2015,07,06,13,35,22.20
2015,07,06,13,36,22.20
2015,07,06,13,37,22.10
2015,07,06,13,38,22.10
2015,07,06,13,39,22.00
2015,07,06,13,40,21.80
2015,07,06,13,41,21.80
2015,07,06,13,42,21.80
2015,07,06,13,43,21.80
2015,07,06,13,44,21.80
2015,07,06,13,45,21.80
2015,07,06,13,46,21.80
2015,07,06,13,47,21.80
2015,07,06,13,48,21.90
2015,07,06,13,49,21.90
2015,07,06,13,50,21.90
2015,07,06,13,51,21.90
2015,07,06,13,52,21.90
2015,07,06,13,53,21.80
2015,07,06,13,54,21.80
2015,07,06,13,55,21.70
2015,07,06,13,56,21.70
2015,07,06,13,57,21.60
2015,07,06,13,58,21.60
2015,07,06,13,59,21.70
2015,07,06,14,00,21.80
2015,07,06,14,01,21.80
2015,07,06,14,02,21.80
2015,07,06,14,03,21.80
2015,07,06,14,04,21.80
2015,07,06,14,05,21.80
2015,07,06,14,06,21.80
2015,07,06,14,07,21.80
2015,07,06,14,08,21.80
2015,07,06,14,09,21.80
2015,07,06,14,10,21.80
2015,07,06,14,11,21.80
2015,07,06,14,12,21.80
2015,07,06,14,13,21.80
2015,07,06,14,14,21.80
2015,07,06,14,15,21.90
2015,07,06,14,16,21.90
2015,07,06,14,17,21.90
2015,07,06,14,18,21.90
2015,07,06,14,19,21.90
2015,07,06,14,20,21.90
2015,07,06,14,21,21.90
2015,07,06,14,22,21.90
2015,07,06,14,23,21.80
2015,07,06,14,24,21.80
2015,07,06,14,25,21.80
2015,07,06,14,26,21.80
2015,07,06,14,27,21.80
2015,07,06,14,28,21.80
2015,07,06,14,29,21.80
2015,07,06,14,30,21.90
2015,07,06,14,31,21.90
2015,07,06,14,32,22.00
2015,07,06,14,33,22.00
2015,07,06,14,34,22.10
2015,07,06,14,35,22.20
2015,07,06,14,36,22.20
2015,07,06,14,37,22.30
2015,07,06,14,38,22.30
2015,07,06,14,39,22.40
2015,07,06,14,40,22.50
2015,07,06,14,41,22.50
2015,07,06,14,42,22.50
2015,07,06,14,43,22.50
2015,07,06,14,44,22.50
2015,07,06,14,45,22.50
2015,07,06,14,46,22.50
2015,07,06,14,47,22.60
2015,07,06,14,48,22.60
2015,07,06,14,49,22.60
2015,07,06,14,50,22.60
2015,07,06,14,51,22.50
2015,07,06,14,52,22.40
2015,07,06,14,53,22.40
2015,07,06,14,54,22.40
2015,07,06,14,55,22.30
2015,07,06,14,56,22.30
2015,07,06,14,57,22.30
2015,07,06,14,58,22.30
2015,07,06,14,59,22.30
2015,07,06,15,00,22.30
2015,07,06,15,01,22.30
2015,07,06,15,02,22.30
2015,07,06,15,03,22.30
2015,07,06,15,04,22.20
2015,07,06,15,05,22.20
2015,07,06,15,06,22.20
2015,07,06,15,07,22.10
2015,07,06,15,08,22.10
2015,07,06,15,09,22.10
2015,07,06,15,10,22.10
2015,07,06,15,11,22.00
2015,07,06,15,12,22.00
2015,07,06,15,13,22.00
2015,07,06,15,14,22.10
2015,07,06,15,15,22.10
2015,07,06,15,16,22.20
2015,07,06,15,17,22.20
2015,07,06,15,18,22.20
2015,07,06,15,19,22.20
2015,07,06,15,20,22.20
2015,07,06,15,21,22.20
2015,07,06,15,22,22.10
2015,07,06,15,23,22.10
2015,07,06,15,24,22.10
2015,07,06,15,25,22.10
2015,07,06,15,26,22.10
2015,07,06,15,27,22.20
2015,07,06,15,28,22.20
2015,07,06,15,29,22.20
2015,07,06,15,30,22.20
2015,07,06,15,31,22.20
2015,07,06,15,32,22.30
2015,07,06,15,33,22.40
2015,07,06,15,34,22.40
2015,07,06,15,35,22.40
2015,07,06,15,36,22.50
2015,07,06,15,37,22.60
2015,07,06,15,38,22.60
2015,07,06,15,39,22.70
2015,07,06,15,40,22.70
2015,07,06,15,41,22.80
2015,07,06,15,42,22.80
2015,07,06,15,43,22.90
2015,07,06,15,44,22.90
2015,07,06,15,45,22.90
2015,07,06,15,46,22.90
2015,07,06,15,47,23.00
2015,07,06,15,48,23.10
2015,07,06,15,49,23.10
2015,07,06,15,50,23.20
2015,07,06,15,51,23.20
2015,07,06,15,52,23.20
2015,07,06,15,53,23.20
2015,07,06,15,54,23.30
2015,07,06,15,55,23.40
2015,07,06,15,56,23.40
2015,07,06,15,57,23.40
2015,07,06,15,58,23.50
2015,07,06,15,59,23.40
2015,07,06,16,00,23.40
2015,07,06,16,01,23.40
2015,07,06,16,02,23.40
2015,07,06,16,03,23.40
2015,07,06,16,04,23.40
2015,07,06,16,05,23.40
2015,07,06,16,06,23.40
2015,07,06,16,07,23.40
2015,07,06,16,08,23.50
2015,07,06,16,09,23.40
2015,07,06,16,10,23.40
2015,07,06,16,11,23.40
2015,07,06,16,12,23.40
2015,07,06,16,13,23.40
2015,07,06,16,14,23.40
2015,07,06,16,15,23.40
2015,07,06,16,16,23.40
2015,07,06,16,17,23.40
2015,07,06,16,18,23.40
2015,07,06,16,19,23.40
2015,07,06,16,20,23.30
2015,07,06,16,21,23.20
2015,07,06,16,22,23.20
2015,07,06,16,23,23.10
2015,07,06,16,24,23.10
2015,07,06,16,25,23.10
2015,07,06,16,26,23.10
2015,07,06,16,27,23.10
2015,07,06,16,28,23.10
2015,07,06,16,29,23.00
2015,07,06,16,30,22.90
2015,07,06,16,31,22.90
2015,07,06,16,32,22.90
2015,07,06,16,33,22.90
2015,07,06,16,34,22.90
2015,07,06,16,35,22.90
2015,07,06,16,36,23.00
2015,07,06,16,37,23.00
2015,07,06,16,38,23.00
2015,07,06,16,39,23.00
2015,07,06,16,40,23.00
2015,07,06,16,41,23.00
2015,07,06,16,42,22.90
2015,07,06,16,43,22.90
2015,07,06,16,44,23.00
2015,07,06,16,45,23.10
2015,07,06,16,46,23.10
2015,07,06,16,47,23.10
2015,07,06,16,48,23.10
2015,07,06,16,49,23.00
2015,07,06,16,50,22.90
2015,07,06,16,51,22.90
2015,07,06,16,52,22.80
2015,07,06,16,53,22.80
2015,07,06,16,54,22.90
2015,07,06,16,55,22.90
2015,07,06,16,56,23.00
2015,07,06,16,57,22.90
2015,07,06,16,58,22.80
2015,07,06,16,59,22.80
2015,07,06,17,00,22.70
2015,07,06,17,01,22.70
2015,07,06,17,02,22.70
2015,07,06,17,03,22.60
2015,07,06,17,04,22.60
2015,07,06,17,05,22.60
2015,07,06,17,06,22.60
2015,07,06,17,07,22.70
2015,07,06,17,08,22.70
2015,07,06,17,09,22.70
2015,07,06,17,10,22.70
2015,07,06,17,11,22.70
2015,07,06,17,12,22.80
2015,07,06,17,13,22.90
2015,07,06,17,14,22.90
2015,07,06,17,15,22.90
2015,07,06,17,16,23.00
2015,07,06,17,17,23.00
2015,07,06,17,18,23.10
2015,07,06,17,19,23.10
2015,07,06,17,20,23.20
2015,07,06,17,21,23.20
2015,07,06,17,22,23.20
2015,07,06,17,23,23.20